Year,Month,Day,Hour,Minute,Value (Times are PST for temperature in C)
2012,07,15,00,00,15.20
2012,07,15,00,01,15.20
2012,07,15,00,02,15.20
2012,07,15,00,03,15.20
2012,07,15,00,04,15.20
2012,07,15,00,05,15.10
2012,07,15,00,06,15.10
2012,07,15,00,07,15.10
2012,07,15,00,08,15.00
2012,07,15,00,09,15.00
2012,07,15,00,10,15.00
2012,07,15,00,11,15.00
2012,07,15,00,12,15.00
2012,07,15,00,13,15.00
2012,07,15,00,14,15.00
2012,07,15,00,15,15.00
2012,07,15,00,16,15.00
2012,07,15,00,17,15.00
2012,07,15,00,18,15.00
2012,07,15,00,19,15.00
2012,07,15,00,20,15.00
2012,07,15,00,21,15.00
2012,07,15,00,22,15.00
2012,07,15,00,23,14.90
2012,07,15,00,24,14.80
2012,07,15,00,25,14.80
2012,07,15,00,26,14.80
2012,07,15,00,27,14.80
2012,07,15,00,28,14.80
2012,07,15,00,29,14.80
2012,07,15,00,30,14.80
2012,07,15,00,31,14.70
2012,07,15,00,32,14.70
2012,07,15,00,33,14.70
2012,07,15,00,34,14.70
2012,07,15,00,35,14.70
2012,07,15,00,36,14.70
2012,07,15,00,37,14.70
2012,07,15,00,38,14.70
2012,07,15,00,39,14.70
2012,07,15,00,40,14.70
2012,07,15,00,41,14.60
2012,07,15,00,42,14.60
2012,07,15,00,43,14.60
2012,07,15,00,44,14.60
2012,07,15,00,45,14.60
2012,07,15,00,46,14.60
2012,07,15,00,47,14.60
2012,07,15,00,48,14.60
2012,07,15,00,49,14.50
2012,07,15,00,50,14.50
2012,07,15,00,51,14.50
2012,07,15,00,52,14.50
2012,07,15,00,53,14.50
2012,07,15,00,54,14.50
2012,07,15,00,55,14.40
2012,07,15,00,56,14.40
2012,07,15,00,57,14.40
2012,07,15,00,58,14.40
2012,07,15,00,59,14.40
2012,07,15,01,00,14.40
2012,07,15,01,01,14.40
2012,07,15,01,02,14.30
2012,07,15,01,03,14.30
2012,07,15,01,04,14.30
2012,07,15,01,05,14.30
2012,07,15,01,06,14.30
2012,07,15,01,07,14.30
2012,07,15,01,08,14.30
2012,07,15,01,09,14.20
2012,07,15,01,10,14.20
2012,07,15,01,11,14.20
2012,07,15,01,12,14.20
2012,07,15,01,13,14.20
2012,07,15,01,14,14.20
2012,07,15,01,15,14.20
2012,07,15,01,16,14.20
2012,07,15,01,17,14.20
2012,07,15,01,18,14.30
2012,07,15,01,19,14.30
2012,07,15,01,20,14.20
2012,07,15,01,21,14.20
2012,07,15,01,22,14.20
2012,07,15,01,23,14.20
2012,07,15,01,24,14.20
2012,07,15,01,25,14.20
2012,07,15,01,26,14.20
2012,07,15,01,27,14.20
2012,07,15,01,28,14.20
2012,07,15,01,29,14.20
2012,07,15,01,30,14.20
2012,07,15,01,31,14.20
2012,07,15,01,32,14.20
2012,07,15,01,33,14.20
2012,07,15,01,34,14.20
2012,07,15,01,35,14.20
2012,07,15,01,36,14.20
2012,07,15,01,37,14.10
2012,07,15,01,38,14.10
2012,07,15,01,39,14.10
2012,07,15,01,40,14.10
2012,07,15,01,41,14.10
2012,07,15,01,42,14.10
2012,07,15,01,43,14.00
2012,07,15,01,44,14.00
2012,07,15,01,45,14.00
2012,07,15,01,46,14.00
2012,07,15,01,47,13.90
2012,07,15,01,48,13.90
2012,07,15,01,49,13.90
2012,07,15,01,50,13.80
2012,07,15,01,51,13.80
2012,07,15,01,52,13.80
2012,07,15,01,53,13.80
2012,07,15,01,54,13.80
2012,07,15,01,55,13.80
2012,07,15,01,56,13.80
2012,07,15,01,57,13.80
2012,07,15,01,58,13.80
2012,07,15,01,59,13.80
2012,07,15,02,00,13.80
2012,07,15,02,01,13.80
2012,07,15,02,02,13.80
2012,07,15,02,03,13.80
2012,07,15,02,04,13.80
2012,07,15,02,05,13.80
2012,07,15,02,06,13.80
2012,07,15,02,07,13.80
2012,07,15,02,08,13.80
2012,07,15,02,09,13.70
2012,07,15,02,10,13.70
2012,07,15,02,11,13.70
2012,07,15,02,12,13.70
2012,07,15,02,13,13.70
2012,07,15,02,14,13.70
2012,07,15,02,15,13.70
2012,07,15,02,16,13.70
2012,07,15,02,17,13.70
2012,07,15,02,18,13.70
2012,07,15,02,19,13.70
2012,07,15,02,20,13.70
2012,07,15,02,21,13.70
2012,07,15,02,22,13.70
2012,07,15,02,23,13.70
2012,07,15,02,24,13.70
2012,07,15,02,25,13.70
2012,07,15,02,26,13.70
2012,07,15,02,27,13.70
2012,07,15,02,28,13.70
2012,07,15,02,29,13.70
2012,07,15,02,30,13.70
2012,07,15,02,31,13.70
2012,07,15,02,32,13.70
2012,07,15,02,33,13.70
2012,07,15,02,34,13.70
2012,07,15,02,35,13.70
2012,07,15,02,36,13.70
2012,07,15,02,37,13.70
2012,07,15,02,38,13.70
2012,07,15,02,39,13.70
2012,07,15,02,40,13.70
2012,07,15,02,41,13.70
2012,07,15,02,42,13.70
2012,07,15,02,43,13.70
2012,07,15,02,44,13.70
2012,07,15,02,45,13.80
2012,07,15,02,46,13.80
2012,07,15,02,47,13.80
2012,07,15,02,48,13.80
2012,07,15,02,49,13.80
2012,07,15,02,50,13.80
2012,07,15,02,51,13.80
2012,07,15,02,52,13.80
2012,07,15,02,53,13.80
2012,07,15,02,54,13.80
2012,07,15,02,55,13.80
2012,07,15,02,56,13.80
2012,07,15,02,57,13.80
2012,07,15,02,58,13.80
2012,07,15,02,59,13.80
2012,07,15,03,00,13.80
2012,07,15,03,01,13.90
2012,07,15,03,02,13.90
2012,07,15,03,03,13.90
2012,07,15,03,04,13.90
2012,07,15,03,05,13.90
2012,07,15,03,06,13.90
2012,07,15,03,07,13.90
2012,07,15,03,08,13.90
2012,07,15,03,09,13.90
2012,07,15,03,10,14.00
2012,07,15,03,11,14.00
2012,07,15,03,12,14.00
2012,07,15,03,13,14.00
2012,07,15,03,14,14.00
2012,07,15,03,15,14.00
2012,07,15,03,16,14.00
2012,07,15,03,17,14.00
2012,07,15,03,18,14.00
2012,07,15,03,19,14.00
2012,07,15,03,20,14.10
2012,07,15,03,21,14.10
2012,07,15,03,22,14.10
2012,07,15,03,23,14.10
2012,07,15,03,24,14.20
2012,07,15,03,25,14.20
2012,07,15,03,26,14.30
2012,07,15,03,27,14.30
2012,07,15,03,28,14.30
2012,07,15,03,29,14.40
2012,07,15,03,30,14.40
2012,07,15,03,31,14.40
2012,07,15,03,32,14.50
2012,07,15,03,33,14.50
2012,07,15,03,34,14.50
2012,07,15,03,35,14.50
2012,07,15,03,36,14.50
2012,07,15,03,37,14.60
2012,07,15,03,38,14.60
2012,07,15,03,39,14.60
2012,07,15,03,40,14.60
2012,07,15,03,41,14.60
2012,07,15,03,42,14.60
2012,07,15,03,43,14.60
2012,07,15,03,44,14.60
2012,07,15,03,45,14.60
2012,07,15,03,46,14.60
2012,07,15,03,47,14.60
2012,07,15,03,48,14.60
2012,07,15,03,49,14.60
2012,07,15,03,50,14.60
2012,07,15,03,51,14.70
2012,07,15,03,52,14.70
2012,07,15,03,53,14.70
2012,07,15,03,54,14.70
2012,07,15,03,55,14.70
2012,07,15,03,56,14.70
2012,07,15,03,57,14.70
2012,07,15,03,58,14.70
2012,07,15,03,59,14.70
2012,07,15,04,00,14.70
2012,07,15,04,01,14.70
2012,07,15,04,02,14.70
2012,07,15,04,03,14.70
2012,07,15,04,04,14.70
2012,07,15,04,05,14.70
2012,07,15,04,06,14.70
2012,07,15,04,07,14.70
2012,07,15,04,08,14.60
2012,07,15,04,09,14.70
2012,07,15,04,10,14.60
2012,07,15,04,11,14.60
2012,07,15,04,12,14.70
2012,07,15,04,13,14.70
2012,07,15,04,14,14.70
2012,07,15,04,15,14.70
2012,07,15,04,16,14.60
2012,07,15,04,17,14.60
2012,07,15,04,18,14.60
2012,07,15,04,19,14.60
2012,07,15,04,20,14.60
2012,07,15,04,21,14.60
2012,07,15,04,22,14.60
2012,07,15,04,23,14.60
2012,07,15,04,24,14.60
2012,07,15,04,25,14.60
2012,07,15,04,26,14.60
2012,07,15,04,27,14.50
2012,07,15,04,28,14.50
2012,07,15,04,29,14.50
2012,07,15,04,30,14.50
2012,07,15,04,31,14.50
2012,07,15,04,32,14.40
2012,07,15,04,33,14.40
2012,07,15,04,34,14.50
2012,07,15,04,35,14.50
2012,07,15,04,36,14.50
2012,07,15,04,37,14.60
2012,07,15,04,38,14.60
2012,07,15,04,39,14.60
2012,07,15,04,40,14.60
2012,07,15,04,41,14.60
2012,07,15,04,42,14.60
2012,07,15,04,43,14.70
2012,07,15,04,44,14.70
2012,07,15,04,45,14.70
2012,07,15,04,46,14.70
2012,07,15,04,47,14.70
2012,07,15,04,48,14.70
2012,07,15,04,49,14.70
2012,07,15,04,50,14.70
2012,07,15,04,51,14.70
2012,07,15,04,52,14.70
2012,07,15,04,53,14.80
2012,07,15,04,54,14.80
2012,07,15,04,55,14.80
2012,07,15,04,56,14.80
2012,07,15,04,57,14.80
2012,07,15,04,58,14.90
2012,07,15,04,59,14.90
2012,07,15,05,00,14.90
2012,07,15,05,01,15.00
2012,07,15,05,02,15.00
2012,07,15,05,03,15.00
2012,07,15,05,04,15.00
2012,07,15,05,05,15.00
2012,07,15,05,06,15.00
2012,07,15,05,07,15.00
2012,07,15,05,08,15.00
2012,07,15,05,09,15.00
2012,07,15,05,10,15.00
2012,07,15,05,11,15.00
2012,07,15,05,12,15.00
2012,07,15,05,13,15.00
2012,07,15,05,14,15.00
2012,07,15,05,15,15.00
2012,07,15,05,16,15.00
2012,07,15,05,17,15.00
2012,07,15,05,18,15.10
2012,07,15,05,19,15.20
2012,07,15,05,20,15.20
2012,07,15,05,21,15.30
2012,07,15,05,22,15.30
2012,07,15,05,23,15.40
2012,07,15,05,24,15.50
2012,07,15,05,25,15.50
2012,07,15,05,26,15.50
2012,07,15,05,27,15.60
2012,07,15,05,28,15.60
2012,07,15,05,29,15.60
2012,07,15,05,30,15.60
2012,07,15,05,31,15.70
2012,07,15,05,32,15.70
2012,07,15,05,33,15.70
2012,07,15,05,34,15.70
2012,07,15,05,35,15.70
2012,07,15,05,36,15.80
2012,07,15,05,37,15.80
2012,07,15,05,38,15.80
2012,07,15,05,39,15.80
2012,07,15,05,40,15.80
2012,07,15,05,41,15.80
2012,07,15,05,42,15.80
2012,07,15,05,43,15.80
2012,07,15,05,44,15.80
2012,07,15,05,45,15.80
2012,07,15,05,46,15.80
2012,07,15,05,47,15.80
2012,07,15,05,48,15.90
2012,07,15,05,49,15.90
2012,07,15,05,50,15.90
2012,07,15,05,51,15.90
2012,07,15,05,52,15.90
2012,07,15,05,53,15.90
2012,07,15,05,54,15.90
2012,07,15,05,55,15.90
2012,07,15,05,56,15.90
2012,07,15,05,57,15.90
2012,07,15,05,58,15.90
2012,07,15,05,59,16.00
2012,07,15,06,00,16.00
2012,07,15,06,01,16.00
2012,07,15,06,02,16.00
2012,07,15,06,03,16.00
2012,07,15,06,04,16.00
2012,07,15,06,05,16.00
2012,07,15,06,06,16.10
2012,07,15,06,07,16.10
2012,07,15,06,08,16.10
2012,07,15,06,09,16.10
2012,07,15,06,10,16.10
2012,07,15,06,11,16.10
2012,07,15,06,12,16.10
2012,07,15,06,13,16.10
2012,07,15,06,14,16.10
2012,07,15,06,15,16.10
2012,07,15,06,16,16.10
2012,07,15,06,17,16.10
2012,07,15,06,18,16.10
2012,07,15,06,19,16.10
2012,07,15,06,20,16.10
2012,07,15,06,21,16.10
2012,07,15,06,22,16.10
2012,07,15,06,23,16.10
2012,07,15,06,24,16.10
2012,07,15,06,25,16.10
2012,07,15,06,26,16.10
2012,07,15,06,27,16.10
2012,07,15,06,28,16.10
2012,07,15,06,29,16.10
2012,07,15,06,30,16.10
2012,07,15,06,31,16.10
2012,07,15,06,32,16.10
2012,07,15,06,33,16.10
2012,07,15,06,34,16.10
2012,07,15,06,35,16.20
2012,07,15,06,36,16.20
2012,07,15,06,37,16.20
2012,07,15,06,38,16.20
2012,07,15,06,39,16.20
2012,07,15,06,40,16.20
2012,07,15,06,41,16.20
2012,07,15,06,42,16.20
2012,07,15,06,43,16.20
2012,07,15,06,44,16.20
2012,07,15,06,45,16.20
2012,07,15,06,46,16.20
2012,07,15,06,47,16.20
2012,07,15,06,48,16.20
2012,07,15,06,49,16.30
2012,07,15,06,50,16.30
2012,07,15,06,51,16.30
2012,07,15,06,52,16.30
2012,07,15,06,53,16.30
2012,07,15,06,54,16.30
2012,07,15,06,55,16.30
2012,07,15,06,56,16.30
2012,07,15,06,57,16.30
2012,07,15,06,58,16.30
2012,07,15,06,59,16.30
2012,07,15,07,00,16.30
2012,07,15,07,01,16.30
2012,07,15,07,02,16.30
2012,07,15,07,03,16.30
2012,07,15,07,04,16.30
2012,07,15,07,05,16.40
2012,07,15,07,06,16.40
2012,07,15,07,07,16.40
2012,07,15,07,08,16.40
2012,07,15,07,09,16.40
2012,07,15,07,10,16.40
2012,07,15,07,11,16.40
2012,07,15,07,12,16.40
2012,07,15,07,13,16.40
2012,07,15,07,14,16.40
2012,07,15,07,15,16.40
2012,07,15,07,16,16.40
2012,07,15,07,17,16.40
2012,07,15,07,18,16.40
2012,07,15,07,19,16.40
2012,07,15,07,20,16.40
2012,07,15,07,21,16.40
2012,07,15,07,22,16.40
2012,07,15,07,23,16.40
2012,07,15,07,24,16.40
2012,07,15,07,25,16.40
2012,07,15,07,26,16.40
2012,07,15,07,27,16.40
2012,07,15,07,28,16.40
2012,07,15,07,29,16.40
2012,07,15,07,30,16.40
2012,07,15,07,31,16.40
2012,07,15,07,32,16.40
2012,07,15,07,33,16.40
2012,07,15,07,34,16.40
2012,07,15,07,35,16.40
2012,07,15,07,36,16.40
2012,07,15,07,37,16.40
2012,07,15,07,38,16.40
2012,07,15,07,39,16.40
2012,07,15,07,40,16.40
2012,07,15,07,41,16.40
2012,07,15,07,42,16.40
2012,07,15,07,43,16.40
2012,07,15,07,44,16.40
2012,07,15,07,45,16.40
2012,07,15,07,46,16.40
2012,07,15,07,47,16.40
2012,07,15,07,48,16.40
2012,07,15,07,49,16.40
2012,07,15,07,50,16.40
2012,07,15,07,51,16.40
2012,07,15,07,52,16.40
2012,07,15,07,53,16.40
2012,07,15,07,54,16.40
2012,07,15,07,55,16.40
2012,07,15,07,56,16.40
2012,07,15,07,57,16.40
2012,07,15,07,58,16.40
2012,07,15,07,59,16.40
2012,07,15,08,00,16.40
2012,07,15,08,01,16.50
2012,07,15,08,02,16.50
2012,07,15,08,03,16.50
2012,07,15,08,04,16.50
2012,07,15,08,05,16.40
2012,07,15,08,06,16.50
2012,07,15,08,07,16.50
2012,07,15,08,08,16.50
2012,07,15,08,09,16.50
2012,07,15,08,10,16.40
2012,07,15,08,11,16.40
2012,07,15,08,12,16.40
2012,07,15,08,13,16.40
2012,07,15,08,14,16.40
2012,07,15,08,15,16.40
2012,07,15,08,16,16.40
2012,07,15,08,17,16.50
2012,07,15,08,18,16.50
2012,07,15,08,19,16.50
2012,07,15,08,20,16.50
2012,07,15,08,21,16.50
2012,07,15,08,22,16.50
2012,07,15,08,23,16.50
2012,07,15,08,24,16.50
2012,07,15,08,25,16.50
2012,07,15,08,26,16.50
2012,07,15,08,27,16.50
2012,07,15,08,28,16.50
2012,07,15,08,29,16.50
2012,07,15,08,30,16.50
2012,07,15,08,31,16.40
2012,07,15,08,32,16.40
2012,07,15,08,33,16.40
2012,07,15,08,34,16.50
2012,07,15,08,35,16.50
2012,07,15,08,36,16.50
2012,07,15,08,37,16.50
2012,07,15,08,38,16.40
2012,07,15,08,39,16.40
2012,07,15,08,40,16.40
2012,07,15,08,41,16.40
2012,07,15,08,42,16.40
2012,07,15,08,43,16.40
2012,07,15,08,44,16.40
2012,07,15,08,45,16.40
2012,07,15,08,46,16.40
2012,07,15,08,47,16.40
2012,07,15,08,48,16.40
2012,07,15,08,49,16.40
2012,07,15,08,50,16.40
2012,07,15,08,51,16.40
2012,07,15,08,52,16.40
2012,07,15,08,53,16.40
2012,07,15,08,54,16.40
2012,07,15,08,55,16.40
2012,07,15,08,56,16.40
2012,07,15,08,57,16.40
2012,07,15,08,58,16.40
2012,07,15,08,59,16.40
2012,07,15,09,00,16.40
2012,07,15,09,01,16.40
2012,07,15,09,02,16.40
2012,07,15,09,03,16.40
2012,07,15,09,04,16.40
2012,07,15,09,05,16.40
2012,07,15,09,06,16.40
2012,07,15,09,07,16.30
2012,07,15,09,08,16.30
2012,07,15,09,09,16.30
2012,07,15,09,10,16.30
2012,07,15,09,11,16.30
2012,07,15,09,12,16.30
2012,07,15,09,13,16.30
2012,07,15,09,14,16.30
2012,07,15,09,15,16.30
2012,07,15,09,16,16.30
2012,07,15,09,17,16.30
2012,07,15,09,18,16.30
2012,07,15,09,19,16.30
2012,07,15,09,20,16.30
2012,07,15,09,21,16.30
2012,07,15,09,22,16.20
2012,07,15,09,23,16.20
2012,07,15,09,24,16.20
2012,07,15,09,25,16.20
2012,07,15,09,26,16.20
2012,07,15,09,27,16.20
2012,07,15,09,28,16.20
2012,07,15,09,29,16.20
2012,07,15,09,30,16.20
2012,07,15,09,31,16.20
2012,07,15,09,32,16.20
2012,07,15,09,33,16.20
2012,07,15,09,34,16.20
2012,07,15,09,35,16.20
2012,07,15,09,36,16.30
2012,07,15,09,37,16.30
2012,07,15,09,38,16.30
2012,07,15,09,39,16.30
2012,07,15,09,40,16.30
2012,07,15,09,41,16.30
2012,07,15,09,42,16.30
2012,07,15,09,43,16.30
2012,07,15,09,44,16.20
2012,07,15,09,45,16.20
2012,07,15,09,46,16.20
2012,07,15,09,47,16.20
2012,07,15,09,48,16.20
2012,07,15,09,49,16.20
2012,07,15,09,50,16.20
2012,07,15,09,51,16.20
2012,07,15,09,52,16.20
2012,07,15,09,53,16.30
2012,07,15,09,54,16.20
2012,07,15,09,55,16.20
2012,07,15,09,56,16.20
2012,07,15,09,57,16.20
2012,07,15,09,58,16.20
2012,07,15,09,59,16.20
2012,07,15,10,00,16.20
2012,07,15,10,01,16.20
2012,07,15,10,02,16.20
2012,07,15,10,03,16.20
2012,07,15,10,04,16.30
2012,07,15,10,05,16.30
2012,07,15,10,06,16.30
2012,07,15,10,07,16.30
2012,07,15,10,08,16.30
2012,07,15,10,09,16.30
2012,07,15,10,10,16.30
2012,07,15,10,11,16.30
2012,07,15,10,12,16.30
2012,07,15,10,13,16.30
2012,07,15,10,14,16.30
2012,07,15,10,15,16.30
2012,07,15,10,16,16.30
2012,07,15,10,17,16.30
2012,07,15,10,18,16.30
2012,07,15,10,19,16.30
2012,07,15,10,20,16.30
2012,07,15,10,21,16.30
2012,07,15,10,22,16.30
2012,07,15,10,23,16.30
2012,07,15,10,24,16.30
2012,07,15,10,25,16.30
2012,07,15,10,26,16.30
2012,07,15,10,27,16.40
2012,07,15,10,28,16.30
2012,07,15,10,29,16.30
2012,07,15,10,30,16.30
2012,07,15,10,31,16.30
2012,07,15,10,32,16.30
2012,07,15,10,33,16.30
2012,07,15,10,34,16.30
2012,07,15,10,35,16.30
2012,07,15,10,36,16.30
2012,07,15,10,37,16.30
2012,07,15,10,38,16.30
2012,07,15,10,39,16.30
2012,07,15,10,40,16.30
2012,07,15,10,41,16.30
2012,07,15,10,42,16.30
2012,07,15,10,43,16.30
2012,07,15,10,44,16.30
2012,07,15,10,45,16.30
2012,07,15,10,46,16.30
2012,07,15,10,47,16.30
2012,07,15,10,48,16.30
2012,07,15,10,49,16.30
2012,07,15,10,50,16.30
2012,07,15,10,51,16.30
2012,07,15,10,52,16.30
2012,07,15,10,53,16.30
2012,07,15,10,54,16.30
2012,07,15,10,55,16.30
2012,07,15,10,56,16.30
2012,07,15,10,57,16.30
2012,07,15,10,58,16.30
2012,07,15,10,59,16.30
2012,07,15,11,00,16.30
2012,07,15,11,01,16.30
2012,07,15,11,02,16.30
2012,07,15,11,03,16.30
2012,07,15,11,04,16.30
2012,07,15,11,05,16.30
2012,07,15,11,06,16.20
2012,07,15,11,07,16.30
2012,07,15,11,08,16.30
2012,07,15,11,09,16.30
2012,07,15,11,10,16.30
2012,07,15,11,11,16.30
2012,07,15,11,12,16.30
2012,07,15,11,13,16.30
2012,07,15,11,14,16.30
2012,07,15,11,15,16.40
2012,07,15,11,16,16.40
2012,07,15,11,17,16.40
2012,07,15,11,18,16.40
2012,07,15,11,19,16.40
2012,07,15,11,20,16.50
2012,07,15,11,21,16.50
2012,07,15,11,22,16.50
2012,07,15,11,23,16.50
2012,07,15,11,24,16.50
2012,07,15,11,25,16.50
2012,07,15,11,26,16.50
2012,07,15,11,27,16.50
2012,07,15,11,28,16.40
2012,07,15,11,29,16.50
2012,07,15,11,30,16.50
2012,07,15,11,31,16.50
2012,07,15,11,32,16.50
2012,07,15,11,33,16.50
2012,07,15,11,34,16.50
2012,07,15,11,35,16.50
2012,07,15,11,36,16.50
2012,07,15,11,37,16.50
2012,07,15,11,38,16.50
2012,07,15,11,39,16.50
2012,07,15,11,40,16.50
2012,07,15,11,41,16.60
2012,07,15,11,42,16.60
2012,07,15,11,43,16.60
2012,07,15,11,44,16.60
2012,07,15,11,45,16.60
2012,07,15,11,46,16.60
2012,07,15,11,47,16.60
2012,07,15,11,48,16.60
2012,07,15,11,49,16.60
2012,07,15,11,50,16.60
2012,07,15,11,51,16.60
2012,07,15,11,52,16.60
2012,07,15,11,53,16.60
2012,07,15,11,54,16.60
2012,07,15,11,55,16.60
2012,07,15,11,56,16.60
2012,07,15,11,57,16.60
2012,07,15,11,58,16.60
2012,07,15,11,59,16.50
2012,07,15,12,00,16.50
2012,07,15,12,01,16.50
2012,07,15,12,02,16.40
2012,07,15,12,03,16.40
2012,07,15,12,04,16.40
2012,07,15,12,05,16.30
2012,07,15,12,06,16.30
2012,07,15,12,07,16.20
2012,07,15,12,08,16.20
2012,07,15,12,09,16.10
2012,07,15,12,10,16.10
2012,07,15,12,11,16.10
2012,07,15,12,12,16.00
2012,07,15,12,13,16.00
2012,07,15,12,14,16.00
2012,07,15,12,15,16.00
2012,07,15,12,16,15.90
2012,07,15,12,17,16.00
2012,07,15,12,18,16.00
2012,07,15,12,19,16.00
2012,07,15,12,20,16.00
2012,07,15,12,21,16.00
2012,07,15,12,22,15.90
2012,07,15,12,23,15.90
2012,07,15,12,24,15.90
2012,07,15,12,25,15.90
2012,07,15,12,26,15.80
2012,07,15,12,27,15.80
2012,07,15,12,28,15.80
2012,07,15,12,29,15.80
2012,07,15,12,30,15.80
2012,07,15,12,31,15.80
2012,07,15,12,32,15.80
2012,07,15,12,33,15.80
2012,07,15,12,34,15.80
2012,07,15,12,35,15.80
2012,07,15,12,36,15.80
2012,07,15,12,37,15.80
2012,07,15,12,38,15.80
2012,07,15,12,39,15.80
2012,07,15,12,40,15.70
2012,07,15,12,41,15.70
2012,07,15,12,42,15.80
2012,07,15,12,43,15.80
2012,07,15,12,44,15.80
2012,07,15,12,45,15.70
2012,07,15,12,46,15.70
2012,07,15,12,47,15.70
2012,07,15,12,48,15.70
2012,07,15,12,49,15.70
2012,07,15,12,50,15.70
2012,07,15,12,51,15.80
2012,07,15,12,52,15.80
2012,07,15,12,53,15.80
2012,07,15,12,54,15.80
2012,07,15,12,55,15.80
2012,07,15,12,56,15.80
2012,07,15,12,57,15.80
2012,07,15,12,58,15.80
2012,07,15,12,59,15.90
2012,07,15,13,00,15.90
2012,07,15,13,01,15.90
2012,07,15,13,02,15.90
2012,07,15,13,03,15.90
2012,07,15,13,04,16.00
2012,07,15,13,05,16.00
2012,07,15,13,06,16.00
2012,07,15,13,07,16.00
2012,07,15,13,08,16.10
2012,07,15,13,09,16.10
2012,07,15,13,10,16.10
2012,07,15,13,11,16.10
2012,07,15,13,12,16.10
2012,07,15,13,13,16.10
2012,07,15,13,14,16.10
2012,07,15,13,15,16.20
2012,07,15,13,16,16.20
2012,07,15,13,17,16.20
2012,07,15,13,18,16.20
2012,07,15,13,19,16.20
2012,07,15,13,20,16.20
2012,07,15,13,21,16.20
2012,07,15,13,22,16.10
2012,07,15,13,23,16.10
2012,07,15,13,24,16.10
2012,07,15,13,25,16.10
2012,07,15,13,26,16.10
2012,07,15,13,27,16.20
2012,07,15,13,28,16.20
2012,07,15,13,29,16.20
2012,07,15,13,30,16.20
2012,07,15,13,31,16.20
2012,07,15,13,32,16.20
2012,07,15,13,33,16.20
2012,07,15,13,34,16.20
2012,07,15,13,35,16.20
2012,07,15,13,36,16.20
2012,07,15,13,37,16.20
2012,07,15,13,38,16.20
2012,07,15,13,39,16.10
2012,07,15,13,40,16.10
2012,07,15,13,41,16.10
2012,07,15,13,42,16.10
2012,07,15,13,43,16.10
2012,07,15,13,44,16.10
2012,07,15,13,45,16.10
2012,07,15,13,46,16.00
2012,07,15,13,47,16.00
2012,07,15,13,48,15.90
2012,07,15,13,49,15.90
2012,07,15,13,50,15.90
2012,07,15,13,51,15.90
2012,07,15,13,52,15.90
2012,07,15,13,53,15.80
2012,07,15,13,54,15.80
2012,07,15,13,55,15.80
2012,07,15,13,56,15.80
2012,07,15,13,57,15.80
2012,07,15,13,58,15.80
2012,07,15,13,59,15.80
2012,07,15,14,00,15.80
2012,07,15,14,01,15.80
2012,07,15,14,02,15.80
2012,07,15,14,03,15.80
2012,07,15,14,04,15.80
2012,07,15,14,05,15.80
2012,07,15,14,06,15.70
2012,07,15,14,07,15.70
2012,07,15,14,08,15.70
2012,07,15,14,09,15.70
2012,07,15,14,10,15.70
2012,07,15,14,11,15.70
2012,07,15,14,12,15.70
2012,07,15,14,13,15.70
2012,07,15,14,14,15.70
2012,07,15,14,15,15.80
2012,07,15,14,16,15.80
2012,07,15,14,17,15.80
2012,07,15,14,18,15.80
2012,07,15,14,19,15.80
2012,07,15,14,20,15.80
2012,07,15,14,21,15.80
2012,07,15,14,22,15.80
2012,07,15,14,23,15.90
2012,07,15,14,24,15.90
2012,07,15,14,25,15.90
2012,07,15,14,26,16.00
2012,07,15,14,27,16.10
2012,07,15,14,28,16.10
2012,07,15,14,29,16.20
2012,07,15,14,30,16.30
2012,07,15,14,31,16.40
2012,07,15,14,32,16.40
2012,07,15,14,33,16.50
2012,07,15,14,34,16.50
2012,07,15,14,35,16.50
2012,07,15,14,36,16.60
2012,07,15,14,37,16.60
2012,07,15,14,38,16.60
2012,07,15,14,39,16.60
2012,07,15,14,40,16.60
2012,07,15,14,41,16.60
2012,07,15,14,42,16.60
2012,07,15,14,43,16.60
2012,07,15,14,44,16.60
2012,07,15,14,45,16.60
2012,07,15,14,46,16.60
2012,07,15,14,47,16.60
2012,07,15,14,48,16.50
2012,07,15,14,49,16.50
2012,07,15,14,50,16.50
2012,07,15,14,51,16.50
2012,07,15,14,52,16.50
2012,07,15,14,53,16.50
2012,07,15,14,54,16.60
2012,07,15,14,55,16.60
2012,07,15,14,56,16.60
2012,07,15,14,57,16.70
2012,07,15,14,58,16.70
2012,07,15,14,59,16.80
2012,07,15,15,00,16.80
2012,07,15,15,01,16.80
2012,07,15,15,02,16.70
2012,07,15,15,03,16.80
2012,07,15,15,04,16.80
2012,07,15,15,05,16.80
2012,07,15,15,06,16.80
2012,07,15,15,07,16.80
2012,07,15,15,08,16.90
2012,07,15,15,09,17.00
2012,07,15,15,10,17.10
2012,07,15,15,11,17.10
2012,07,15,15,12,17.20
2012,07,15,15,13,17.20
2012,07,15,15,14,17.20
2012,07,15,15,15,17.30
2012,07,15,15,16,17.30
2012,07,15,15,17,17.30
2012,07,15,15,18,17.30
2012,07,15,15,19,17.30
2012,07,15,15,20,17.30
2012,07,15,15,21,17.40
2012,07,15,15,22,17.40
2012,07,15,15,23,17.30
2012,07,15,15,24,17.30
2012,07,15,15,25,17.40
2012,07,15,15,26,17.40
2012,07,15,15,27,17.50
2012,07,15,15,28,17.60
2012,07,15,15,29,17.70
2012,07,15,15,30,17.70
2012,07,15,15,31,17.80
2012,07,15,15,32,17.70
2012,07,15,15,33,17.70
2012,07,15,15,34,17.70
2012,07,15,15,35,17.60
2012,07,15,15,36,17.60
2012,07,15,15,37,17.60
2012,07,15,15,38,17.60
2012,07,15,15,39,17.50
2012,07,15,15,40,17.50
2012,07,15,15,41,17.40
2012,07,15,15,42,17.40
2012,07,15,15,43,17.30
2012,07,15,15,44,17.30
2012,07,15,15,45,17.30
2012,07,15,15,46,17.40
2012,07,15,15,47,17.30
2012,07,15,15,48,17.40
2012,07,15,15,49,17.40
2012,07,15,15,50,17.40
2012,07,15,15,51,17.50
2012,07,15,15,52,17.60
2012,07,15,15,53,17.70
2012,07,15,15,54,17.80
2012,07,15,15,55,17.80
2012,07,15,15,56,17.90
2012,07,15,15,57,18.00
2012,07,15,15,58,18.00
2012,07,15,15,59,18.10
2012,07,15,16,00,18.20
2012,07,15,16,01,18.20
2012,07,15,16,02,18.20
2012,07,15,16,03,18.20
2012,07,15,16,04,18.20
2012,07,15,16,05,18.20
2012,07,15,16,06,18.30
2012,07,15,16,07,18.40
2012,07,15,16,08,18.30
2012,07,15,16,09,18.30
2012,07,15,16,10,18.20
2012,07,15,16,11,18.30
2012,07,15,16,12,18.30
2012,07,15,16,13,18.40
2012,07,15,16,14,18.40
2012,07,15,16,15,18.40
2012,07,15,16,16,18.20
2012,07,15,16,17,18.10
2012,07,15,16,18,18.00
2012,07,15,16,19,17.90
2012,07,15,16,20,17.90
2012,07,15,16,21,17.90
2012,07,15,16,22,17.90
2012,07,15,16,23,17.90
2012,07,15,16,24,17.80
2012,07,15,16,25,17.80
2012,07,15,16,26,17.80
2012,07,15,16,27,17.70
2012,07,15,16,28,17.70
2012,07,15,16,29,17.60
2012,07,15,16,30,17.60
2012,07,15,16,31,17.60
2012,07,15,16,32,17.60
2012,07,15,16,33,17.60
2012,07,15,16,34,17.60
2012,07,15,16,35,17.70
2012,07,15,16,36,17.70
2012,07,15,16,37,17.70
2012,07,15,16,38,17.70
2012,07,15,16,39,17.70
2012,07,15,16,40,17.70
2012,07,15,16,41,17.60
2012,07,15,16,42,17.50
2012,07,15,16,43,17.40
2012,07,15,16,44,17.30
2012,07,15,16,45,17.10
2012,07,15,16,46,16.90
2012,07,15,16,47,16.80
2012,07,15,16,48,16.70
2012,07,15,16,49,16.70
2012,07,15,16,50,16.60
2012,07,15,16,51,16.60
2012,07,15,16,52,16.60
2012,07,15,16,53,16.60
2012,07,15,16,54,16.60
2012,07,15,16,55,16.70
2012,07,15,16,56,16.70
2012,07,15,16,57,16.70
2012,07,15,16,58,16.70
2012,07,15,16,59,16.70
2012,07,15,17,00,16.70
2012,07,15,17,01,16.70
2012,07,15,17,02,16.70
2012,07,15,17,03,16.80
2012,07,15,17,04,16.90
2012,07,15,17,05,17.00
2012,07,15,17,06,17.10
2012,07,15,17,07,17.20
2012,07,15,17,08,17.30
2012,07,15,17,09,17.30
2012,07,15,17,10,17.40
2012,07,15,17,11,17.40
2012,07,15,17,12,17.40
2012,07,15,17,13,17.50
2012,07,15,17,14,17.60
2012,07,15,17,15,17.60
2012,07,15,17,16,17.70
2012,07,15,17,17,17.70
2012,07,15,17,18,17.70
2012,07,15,17,19,17.70